Regional Weather Roundup
Issued by NWS

Home | Current Version | Previous Version | Graphics & Text | Print | Product List | Glossary On
Versions: 1 2 3 4 5 6 7 8 9 10 11 12 13 14 15 16 17 18 19 20 21 22 23 24 25 26 27 28 29 30 31 32 33 34 35 36 37 38 39 40 41 42 43 44 45 46 47 48 49 50
000
ASUS43 KBIS 180410
RWRND

NORTH DAKOTA REGIONAL WEATHER ROUNDUP
NATIONAL WEATHER SERVICE BISMARCK ND
1100 PM CDT THU AUG 17 2017

NOTE: "FAIR" INDICATES FEW OR NO CLOUDS BELOW 12,000 FEET WITH NO
SIGNIFICANT WEATHER AND/OR OBSTRUCTIONS TO VISIBILITY.


NDZ001>003-009>011-017-180500-
NORTHWEST NORTH DAKOTA

CITY           SKY/WX    TMP DP  RH WIND       PRES   REMARKS
WILLISTON      CLEAR     67  54  63 N8        29.92R
MINOT          CLOUDY    68  56  65 E8        29.85R
MINOT AFB      CLOUDY    69  57  65 E7        29.84R
$$

NDZ018>021-031>035-040>046-180500-
SOUTHWEST NORTH DAKOTA

CITY           SKY/WX    TMP DP  RH WIND       PRES   REMARKS
BISMARCK       PTCLDY    67  59  75 S8        29.83F
DICKINSON      CLEAR     64  48  56 NW7       29.90R
GARRISON         N/A     65  61  87 NE5       29.82S
HETTINGER ARPT CLOUDY    60  49  66 NW5       29.93R
$$

NDZ004>008-012>016-024-026-027-054-180500-
NORTHEAST NORTH DAKOTA

CITY           SKY/WX    TMP DP  RH WIND       PRES   REMARKS
GRAND FORKS    PTCLDY    63  61  93 SW6       29.83S
GRND FRKS AFB  PTCLDY    72  57  60 VRB5      29.88F
DEVILS LAKE    CLEAR     64  58  80 CALM      29.87R
$$

NDZ022-023-025-028>030-036>039-047>053-180500-
SOUTHEAST NORTH DAKOTA

CITY           SKY/WX    TMP DP  RH WIND       PRES   REMARKS
FARGO          CLOUDY    67  61  81 CALM      29.86R
JAMESTOWN      CLEAR     63  57  81 S5        29.87S
$$





USA.gov is the U.S. government's official web portal to all federal, state and local government web resources and services.